Overview Statistics Trail Chart Weather Telemetry Raw packets
 

This is the latest recevied weather packets stored in our database for station/object HB9TJR-3. If no packets are shown the sender has not sent any weather packets the latest 10 day(s).

<< 40 41 42 43 44 >>
Time Temp. Humidity Pressure Rain* Wind** Luminosity Snow
1787747491 20.56° C 78% 868.9 hPa 0 mm - - -
1787746531 20.56° C 80% 869 hPa 0 mm - - -
1787744611 20.56° C 77% 869.2 hPa 0 mm - - -
1787743654 20° C 78% 869.4 hPa 0 mm - - -
1787743651 20° C 78% 869.4 hPa 0 mm - - -
1787742691 20° C 79% 869.4 hPa 0 mm - - -
1787741731 20° C 78% 869.3 hPa 0 mm - - -
1787740775 20° C 79% 869.4 hPa 0 mm - - -
1787740771 20° C 79% 869.4 hPa 0 mm - - -
1787739815 19.44° C 80% 869.5 hPa 0 mm - - -
1787739811 19.44° C 80% 869.5 hPa 0 mm - - -
1787738854 19.44° C 82% 869.5 hPa 0 mm - - -
1787738851 19.44° C 82% 869.5 hPa 0 mm - - -
1787736969 18.89° C 83% 869.7 hPa 0 mm - - -
1787736931 18.89° C 83% 869.7 hPa 0 mm - - -
1787735971 18.89° C 83% 869.5 hPa 0 mm - - -
1787735011 19.44° C 81% 869.5 hPa 0 mm - - -
1787734051 19.44° C 80% 869.5 hPa 0 mm - - -
1787733094 18.89° C 81% 869.3 hPa 0 mm - - -
1787733093 18.89° C 81% 869.3 hPa 0 mm - - -
1787732131 18.89° C 78% 869.2 hPa 0 mm - - -
1787731171 18.89° C 76% 869.3 hPa 0 mm - - -
1787730266 18.89° C 74% 869.2 hPa 0 mm - - -
1787730219 18.89° C 74% 869.2 hPa 0 mm - - -
1787730211 18.89° C 74% 869.2 hPa 0 mm - - -

* Rain latest hour (hover to see other rain measurements)
** Current wind speed in m/s (hover to see current wind gust speed)